Little Rock AFB, AR

4:15 AM CDT on June 26, 2017 (GMT -0500)
Little Rock Air Force Base

Weather History for KLRF - March, 2013

Change the Weather History Date:

Monday, March 25, 2013

  Actual Average Record
Temperature  
Mean Temperature 36 °F -  
Max Temperature 44 °F 63 °F 83 °F (1991)
Min Temperature 30 °F 42 °F 23 °F (1966)
Degree Days  
Heating Degree Days 28    
Moisture  
Dew Point 20 °F    
Average Humidity 50    
Maximum Humidity 66    
Minimum Humidity 39    
Precipitation  
Precipitation 0.00 in - - ()
Sea Level Pressure  
Sea Level Pressure 30.20 in    
Wind  
Wind Speed 12 mph (WNW)    
Max Wind Speed 17 mph    
Max Gust Speed 30 mph    
Visibility 10 miles    
Events      
Averages and records for this station are not official NWS values.
T = Trace of Precipitation, MM = Missing Value Source: NWS Daily Summary

Daily Weather History Graph

Daily Weather History Graph

Search for Another Location

Airport or City:

Trip Planner

Search our weather history database for the weather conditions in past years. The results will help you decide how hot, cold, wet, or windy it might be!

Date:

Astronomy

Mar. 25, 2013 Rise Set
Actual Time 7:04 AM CDT 7:24 PM CDT
Civil Twilight 6:39 AM CDT 7:49 PM CDT
Nautical Twilight 6:09 AM CDT 8:19 PM CDT
Astronomical Twilight 5:39 AM CDT 8:49 PM CDT
Moon 5:58 PM CDT (3/25) 5:45 AM CDT (3/25)
Length of Visible Light 13h 10m
Length of Day
12h 19m
Waxing Gibbous, 96% of the Moon is Illuminated
Mar 25
Waxing Gibbous
Mar 27
Full
Apr 2
Last Quarter
Apr 10
New
Apr 18
First Quarter

Hourly Weather History & Observations

Time (CDT) Temp. Windchill Dew Point Humidity Pressure Visibility Wind Dir Wind Speed Gust Speed Precip Events Conditions
12:58 AM 34.2 °F 25.2 °F 20.1 °F 57% 30.08 in 10.0 mi WNW 12.7 mph 24.2 mph N/A   Clear
1:58 AM 32.7 °F 24.5 °F 21.2 °F 63% 30.10 in 10.0 mi West 10.4 mph 17.3 mph N/A   Clear
2:58 AM 32.0 °F 24.2 °F 19.8 °F 61% 30.08 in 10.0 mi WNW 9.2 mph - N/A   Clear
3:58 AM 31.5 °F 22.9 °F 19.2 °F 61% 30.09 in 10.0 mi West 10.4 mph - N/A   Clear
4:58 AM 31.6 °F 23.1 °F 19.8 °F 62% 30.10 in 10.0 mi West 10.4 mph 18.4 mph N/A   Clear
5:58 AM 31.1 °F 23.1 °F 19.9 °F 63% 30.11 in 10.0 mi West 9.2 mph - N/A   Clear
6:58 AM 30.6 °F 23.1 °F 20.3 °F 66% 30.13 in 10.0 mi West 8.1 mph - N/A   Clear
7:58 AM 31.5 °F 22.9 °F 21.0 °F 65% 30.15 in 10.0 mi West 10.4 mph - N/A   Clear
8:58 AM 34.9 °F 27.7 °F 21.4 °F 58% 30.17 in 10.0 mi West 9.2 mph - N/A   Clear
9:58 AM 37.2 °F 28.7 °F 20.3 °F 50% 30.18 in 10.0 mi WNW 13.8 mph 23.0 mph N/A   Partly Cloudy
10:58 AM 38.1 °F 29.1 °F 19.4 °F 47% 30.19 in 10.0 mi West 16.1 mph 29.9 mph N/A   Partly Cloudy
11:58 AM 40.1 °F 32.7 °F 20.1 °F 45% 30.21 in 10.0 mi NW 12.7 mph 21.9 mph N/A   Clear
12:23 PM 41.0 °F 32.8 °F 19.4 °F 42% 30.20 in 10.0 mi NW 16.1 mph 25.3 mph N/A   Partly Cloudy
12:33 PM 41.0 °F 33.9 °F 19.4 °F 42% 30.20 in 10.0 mi West 12.7 mph 21.9 mph N/A   Partly Cloudy
12:34 PM 41.0 °F 33.1 °F 19.4 °F 42% 30.19 in 10.0 mi West 15.0 mph 21.9 mph N/A   Partly Cloudy
12:44 PM 42.8 °F 34.8 °F 19.4 °F 39% 30.20 in 10.0 mi NW 17.3 mph 28.8 mph N/A   Partly Cloudy
12:45 PM 42.8 °F 34.8 °F 19.4 °F 39% 30.20 in 10.0 mi NW 17.3 mph 28.8 mph N/A   Partly Cloudy
12:58 PM 41.7 °F 34.1 °F 20.3 °F 42% 30.22 in 10.0 mi WNW 15.0 mph 25.3 mph N/A   Scattered Clouds
1:58 PM 42.8 °F 36.2 °F 19.9 °F 40% 30.22 in 10.0 mi West 12.7 mph 21.9 mph N/A   Scattered Clouds
2:58 PM 43.5 °F 35.8 °F 21.2 °F 41% 30.23 in 10.0 mi WNW 17.3 mph 26.5 mph N/A   Scattered Clouds
3:58 PM 43.7 °F 36.3 °F 20.7 °F 40% 30.22 in 10.0 mi WNW 16.1 mph 26.5 mph N/A   Partly Cloudy
4:58 PM 42.1 °F 34.2 °F 20.1 °F 42% 30.23 in 10.0 mi WNW 16.1 mph 24.2 mph N/A   Mostly Cloudy
5:58 PM 41.2 °F 34.1 °F 19.2 °F 41% 30.24 in 10.0 mi NW 12.7 mph 21.9 mph N/A   Overcast
6:58 PM 40.1 °F 32.0 °F 19.6 °F 44% 30.26 in 10.0 mi WNW 15.0 mph 20.7 mph N/A   Overcast
7:58 PM 39.0 °F 34.0 °F 20.5 °F 47% 30.28 in 10.0 mi WNW 6.9 mph - N/A   Overcast
8:58 PM 38.3 °F 31.4 °F 20.5 °F 49% 30.29 in 10.0 mi West 10.4 mph - N/A   Mostly Cloudy
9:58 PM 37.9 °F 31.5 °F 20.5 °F 49% 30.31 in 10.0 mi West 9.2 mph - N/A   Mostly Cloudy
10:58 PM 37.4 °F 32.8 °F 21.4 °F 52% 30.33 in 10.0 mi WNW 5.8 mph - N/A   Overcast
11:58 PM 36.1 °F 30.6 °F 20.5 °F 53% 30.33 in 10.0 mi WNW 6.9 mph - N/A   Partly Cloudy